Погода в Обзоре

Болгария     42°49′10″N   27°52′50″E
темп.,
°C
ветер,
м/с
пор.,
м/с
влажн.,
%
обл.,
%
осадки,
мм/ч
давл.,
гПа
погр.,
м
23 апреля, пт
пт2300:00+11юз348688 0.0 102040
03:00+11ю4484100 0.0 101944
06:00+11ююз3482100 0.0 101845
09:00+11ююз4477100 0.0 101951
12:00+13юз5675100 0.0 1019139
15:00+14зсз5775100 0.1 1019108
18:00+14сз347294 0.0 101875
21:00+13зсз3376100 0.0 102012
24 апреля, сб
сб2400:00+12сз4478100 0.0 102246
03:00+10с458754 0.0 1022192
06:00+10ссв448599 0.0 1023279
09:00+10ссв5584100 0.0 1024377
12:00+10св3384100 0.0 1024320
15:00+10всв3383100 0.0 1023323
18:00+11всв3479100 0.0 1023296
21:00+10всв468348 0.0 1023357
25 апреля, вс
вс2500:00+10св3582100 0.0 1022337
03:00+10св4681100 0.0 1021450
06:00+10св5676100 0.0 1020516
09:00+11ссв6676100 0.0 1020574
12:00+11ссв6776100 0.0 1020570
15:00+11св668398 0.1 1019488
18:00+11св56851 0.0 1018506
21:00+10св45830 0.0 1018388
26 апреля, пн
пн2600:00+10ссв23825 0.0 1018291
03:00+9ссз33820 0.0 1018184
06:00+9з22740 0.0 1017106
09:00+9юз22680 0.0 1019152
12:00+10ю43725 0.0 1019190
15:00+11ююв566811 0.0 1019226
18:00+12ююв787592 0.0 1017264
21:00+11ю710787 0.0 1018317
27 апреля, вт
вт2700:00+11ю71080100 0.0 1017316
03:00+11ю61079100 0.0 1016332
06:00+11ю71078100 0.0 1015334
09:00+11ююз6971100 0.0 1015336
12:00+11ю5567100 0.0 1014221
15:00+12ююв5473100 0.0 1014181
18:00+12юв4575100 0.0 1013105
21:00+12в3378100 0.0 101462